Nathaniel B. Palmer — WBP3210 — position and weather

sailwx.info

Track history (hours):
 
Tides and Currents Weather Stations Pressure Air Temp Water Temp Dewpoint Dewpoint Depression Visibility Wind Speed Wind Dir Waves Ship Positions

Oceanographic research ship Nathaniel B. Palmer (USA)

Contact: Ethan Norris, ethan.norris.contractor@usap.gov

Detailed information on ship capabilities available from University of Delaware's Ocean Information Center and ARCUS's ALIAS (Arctic Logistics Information and Support) project.

Owner: OFFSHORE SERVICE VESSELS, GALLIANO, LA. More information available from US FCC via Universal Licensing System and Coast Guard Vessel Documentation Center.

Last reported at 2017-Sep-26 05:00 UTC. Time now 2017-Sep-26 05:56 UTC.
Position S 32°24' W 073°54'.

Type: Other ship. MMSI: 366610000.

Wind from 180 at 31 knots

Barometer 1020.7 mb
Air temperature 12.2 ° C
Water temperature 13.5 ° C

Date/timePositionNaut miles runAvg speedWind from/ knotsBaromVisibWave heightAir tempDewpointWater temp
2017-Sep-26 05:00S 32°24' W 073°54'0 0.0 180 / 311020.7 12.2 13.5
2017-Sep-26 04:00S 32°24' W 073°54'5 5.1 180 / 311021.1 12.2 13.5
2017-Sep-26 03:00S 32°24' W 074°00'1211.8 180 / 301021.0 12.3 13.3
2017-Sep-26 02:00S 32°30' W 074°12'5 5.1 180 / 291021.5 12.3 13.2
2017-Sep-26 01:00S 32°30' W 074°18'1211.8 180 / 281021.7 12.3 13.2
2017-Sep-26 00:00S 32°24' W 074°30'1010.1 180 / 281022.0 12.4 13.5
2017-Sep-25 23:00S 32°24' W 074°42'5 5.1 180 / 281022.1 12.4 13.6
2017-Sep-25 22:00S 32°24' W 074°48'0 0.0 170 / 281022.5 12.9 13.5
2017-Sep-25 21:00S 32°24' W 074°48'0 0.0 170 / 261022.6 13.0 13.5
2017-Sep-25 20:00S 32°24' W 074°48'0 0.0 180 / 271022.5 12.9 13.5
2017-Sep-25 19:00S 32°24' W 074°48'1211.8 180 / 281022.7 12.7 13.4
2017-Sep-25 18:00S 32°30' W 075°00'1211.8 180 / 271023.1 12.6 13.5
2017-Sep-25 17:00S 32°24' W 075°12'1010.1 180 / 271023.6 12.7 14.0
2017-Sep-25 16:00S 32°24' W 075°24'1010.1 180 / 261024.5 12.8 14.2
2017-Sep-25 15:00S 32°24' W 075°36'5 5.1 170 / 261025.0 13.0 14.3
2017-Sep-25 14:00S 32°24' W 075°42'0 0.0 170 / 261025.3 13.3 14.5
2017-Sep-25 13:00S 32°24' W 075°42'0 0.0 160 / 271025.1 13.3 14.4
2017-Sep-25 12:00S 32°24' W 075°42'0 0.0 160 / 261024.7 13.0 14.4
2017-Sep-25 11:00S 32°24' W 075°42'5 5.1 160 / 271024.1 12.8 14.3
2017-Sep-25 10:00S 32°24' W 075°48'1010.1 170 / 261024.0 12.8 14.5
2017-Sep-25 09:00S 32°24' W 076°00'8 7.9 170 / 261024.0 12.8 15.0
2017-Sep-25 08:00S 32°30' W 076°06'1010.1 170 / 251024.5 12.7 14.3
2017-Sep-25 07:00S 32°30' W 076°18'1211.8 170 / 221025.2 12.7 14.3
2017-Sep-25 06:00S 32°24' W 076°30'5 5.1 170 / 201025.9 12.8 14.4
2017-Sep-25 05:00S 32°24' W 076°36'0 0.0 170 / 181026.7 12.9 14.4
2017-Sep-25 04:00S 32°24' W 076°36'0 0.0 170 / 191026.9 13.0 14.4
2017-Sep-25 03:00S 32°24' W 076°36'0 0.0 170 / 181026.9 13.1 14.5
2017-Sep-25 02:00S 32°24' W 076°36'1010.1 160 / 181026.7 13.4 14.5
2017-Sep-25 01:00S 32°24' W 076°48'1211.8 170 / 181026.5 13.4 14.5
2017-Sep-25 00:00S 32°30' W 077°00'8 7.9 160 / 181026.1 13.6 14.7
2017-Sep-24 23:00S 32°24' W 077°06'1010.1 170 / 171025.8 13.8 14.8
2017-Sep-24 22:00S 32°24' W 077°18'1211.8 170 / 181025.3 14.1 14.8
2017-Sep-24 21:00S 32°30' W 077°30'0 0.0 160 / 161025.7 14.6 14.7
2017-Sep-24 20:00S 32°30' W 077°30'0 0.0 170 / 181025.7 14.6 14.7
2017-Sep-24 19:00S 32°30' W 077°30'0 0.0 180 / 151026.1 14.7 14.7
2017-Sep-24 18:00S 32°30' W 077°30'0 0.0 170 / 121026.6 14.6 14.7
2017-Sep-24 17:00S 32°30' W 077°30'1010.1 170 / 131026.6 14.3 14.7
2017-Sep-24 16:00S 32°30' W 077°42'1010.1 180 / 141026.6 14.0 14.7
2017-Sep-24 15:00S 32°30' W 077°54'1010.1 180 / 121026.3 13.9 14.5
2017-Sep-24 14:00S 32°30' W 078°06'1010.1 180 / 121026.1 13.9 14.6
2017-Sep-24 13:00S 32°30' W 078°18'5 5.1 180 / 111025.4 13.7 14.6
2017-Sep-24 12:00S 32°30' W 078°24'6 6.0 160 / 121024.5 13.7 14.8
2017-Sep-24 11:00S 32°24' W 078°24'6 6.0 170 / 131023.8 13.4 14.8
2017-Sep-24 10:00S 32°30' W 078°24'6 6.0 170 / 141023.2 13.4 14.8
2017-Sep-24 09:00S 32°24' W 078°24'1211.8 180 / 151022.6 13.4 14.8
2017-Sep-24 08:00S 32°30' W 078°36'1010.1 180 / 141022.6 13.6 14.8
2017-Sep-24 07:00S 32°30' W 078°48'1211.8 180 / 141022.7 13.8 14.6
2017-Sep-24 06:00S 32°24' W 079°00'1211.8 190 / 131022.8 14.0 14.9
2017-Sep-24 05:00S 32°30' W 079°12'8 7.9 190 / 141023.2 14.1 14.9
2017-Sep-24 04:00S 32°24' W 079°18'0 0.0 190 / 161023.1 14.0 14.9
2017-Sep-24 03:00S 32°24' W 079°18'0 0.0 240 / 161022.8 14.5 14.9
2017-Sep-24 02:00S 32°24' W 079°18'5 5.1 240 / 131022.2 14.8 14.9
2017-Sep-24 01:00S 32°24' W 079°24'1211.8 240 / 141021.8 14.8 15.0
2017-Sep-24 00:00S 32°30' W 079°36'1010.1 250 / 151021.5 14.7 14.9
2017-Sep-23 23:00S 32°30' W 079°48'1211.8 270 / 141021.3 15.3 15.1
2017-Sep-23 22:00S 32°24' W 080°00'8 7.9 280 / 111020.8 16.1 15.1
2017-Sep-23 21:00S 32°30' W 080°06'0 0.0 280 / 121020.6 15.3 15.1
2017-Sep-23 20:00S 32°30' W 080°06'0 0.0 280 / 111020.6 14.9 15.1
2017-Sep-23 19:00S 32°30' W 080°06'0 0.0 280 / 101020.9 14.7 15.0
2017-Sep-23 18:00S 32°30' W 080°06'0 0.0 260 / 121021.5 14.8 15.0
2017-Sep-23 17:00S 32°30' W 080°06'1010.1 260 / 141022.1 14.4 15.0
2017-Sep-23 16:00S 32°30' W 080°18'1211.8 250 / 141022.4 14.1 15.0
2017-Sep-23 15:00S 32°24' W 080°30'1211.8 250 / 131022.3 13.8 15.1
2017-Sep-23 14:00S 32°30' W 080°42'1010.1 250 / 111021.9 13.7 15.0
2017-Sep-23 13:00S 32°30' W 080°54'5 5.1 260 / 111021.5 13.5 15.0
2017-Sep-23 12:00S 32°30' W 081°00'6 6.0 270 / 111021.1 13.4 15.1
2017-Sep-23 11:00S 32°24' W 081°00'0 0.0 250 / 121020.9 13.3 15.1
2017-Sep-23 10:00S 32°24' W 081°00'5 5.1 250 / 121020.9 13.4 15.1
2017-Sep-23 09:00S 32°24' W 081°06'8 7.9 270 / 111021.2 13.6 15.1
2017-Sep-23 08:00S 32°30' W 081°12'1515.2 290 / 81021.9 13.5 15.1
2017-Sep-23 07:00S 32°30' W 081°30'1010.1 290 / 81022.7 13.4 14.5
2017-Sep-23 06:00S 32°30' W 081°42'1010.1 310 / 71023.2 13.5 14.6
2017-Sep-23 05:00S 32°30' W 081°54'0 0.0 310 / 51023.6 13.5 14.4
2017-Sep-23 04:00S 32°30' W 081°54'0 0.0 340 / 51023.9 13.6 14.5
2017-Sep-23 03:00S 32°30' W 081°54'6 6.0 020 / 51024.1 13.5 14.5
2017-Sep-23 02:00S 32°24' W 081°54'5 5.1 030 / 41024.2 13.6 14.5
2017-Sep-23 01:00S 32°24' W 082°00'1010.1 040 / 41024.3 13.4 14.6
2017-Sep-23 00:00S 32°24' W 082°12'1010.1 180 / 21024.9 13.4 14.6
2017-Sep-22 23:00S 32°24' W 082°24'1211.8 240 / 21025.3 13.5 14.8
2017-Sep-22 22:00S 32°30' W 082°36'1010.1 260 / 31025.5 13.7 15.2
2017-Sep-22 21:00S 32°30' W 082°48'6 6.0 250 / 31026.1 13.8 14.8
2017-Sep-22 20:00S 32°24' W 082°48'6 6.0 020 / 11026.3 14.5 14.5
2017-Sep-22 19:00S 32°30' W 082°48'0 0.0 130 / 31026.8 14.2 14.4
2017-Sep-22 18:00S 32°30' W 082°48'0 0.0 220 / 31027.9 13.7 14.4
2017-Sep-22 17:00S 32°30' W 082°48'0 0.0 090 / 21028.2 14.5 14.4
2017-Sep-22 16:00S 32°30' W 082°48'1010.1 070 / 91027.2 13.5 14.4
2017-Sep-22 15:00S 32°30' W 083°00'1211.8 080 / 91027.5 13.4 14.4
2017-Sep-22 14:00S 32°24' W 083°12'1010.1 110 / 61028.3 13.3 14.7
2017-Sep-22 13:00S 32°24' W 083°24'1010.1 120 / 61028.1 13.3 14.7
2017-Sep-22 12:00S 32°24' W 083°36'8 7.9 110 / 61027.7 13.2 14.7
2017-Sep-22 11:00S 32°30' W 083°42'0 0.0 120 / 51028.1 13.3 14.7
2017-Sep-22 10:00S 32°30' W 083°42'0 0.0 180 / 81029.0 13.4 14.7
2017-Sep-22 09:00S 32°30' W 083°42'5 5.1 180 / 71029.6 13.4 14.7
2017-Sep-22 08:00S 32°30' W 083°48'1010.1 180 / 71030.2 13.3 14.7
2017-Sep-22 07:00S 32°30' W 084°00'1010.1 180 / 61030.5 13.5 14.8
2017-Sep-22 06:00S 32°30' W 084°12'1010.1 180 / 61030.9 13.6 14.7
2017-Sep-22 05:00S 32°30' W 084°24'1010.1 190 / 71031.3 13.7 15.2
2017-Sep-22 04:00S 32°30' W 084°36'6 6.0 190 / 61031.3 13.7 15.3
2017-Sep-22 03:00S 32°24' W 084°36'0 0.0 200 / 41031.2 13.7 15.3
2017-Sep-22 02:00S 32°24' W 084°36'6 6.0 210 / 31031.1 13.8 15.3
2017-Sep-22 01:00S 32°30' W 084°36'8 7.9 210 / 61031.3 13.8 15.3
2017-Sep-22 00:00S 32°24' W 084°42'1211.8 190 / 51031.1 13.7 15.5
2017-Sep-21 23:00S 32°30' W 084°54'1010.1 200 / 41030.8 14.0 15.7
2017-Sep-21 22:00S 32°30' W 085°06'1010.1 190 / 21030.7 14.2 15.5
2017-Sep-21 21:00S 32°30' W 085°18'1010.1 180 / 41031.1 14.2 15.5
2017-Sep-21 20:00S 32°30' W 085°30'6 6.0 200 / 51031.6 14.6 14.9
2017-Sep-21 19:00S 32°24' W 085°30'0 0.0 230 / 11032.2 15.2 14.7
2017-Sep-21 18:00S 32°24' W 085°30'0 0.0 190 / 11032.9 15.1 14.8
2017-Sep-21 17:00S 32°24' W 085°30'6 6.0 180 / 11033.2 15.0 14.8
2017-Sep-21 16:00S 32°30' W 085°30'8 7.9 140 / 21033.1 14.5 14.8
2017-Sep-21 15:00S 32°24' W 085°36'1010.1 180 / 21033.1 13.9 14.9
2017-Sep-21 14:00S 32°24' W 085°48'1010.1 190 / 41032.8 13.8 15.2
2017-Sep-21 13:00S 32°24' W 086°00'8 7.9 230 / 51032.6 13.9 15.2
2017-Sep-21 12:00S 32°30' W 086°06'1211.8 240 / 61032.3 13.6 15.0
2017-Sep-21 11:00S 32°24' W 086°18'8 7.9 290 / 31032.0 13.7 14.9
2017-Sep-21 10:00S 32°30' W 086°24'0 0.0 290 / 21031.7 13.6 14.8
2017-Sep-21 09:00S 32°30' W 086°24'0 0.0 260 / 31032.3 13.8 14.8
2017-Sep-21 08:00S 32°30' W 086°24'0 0.0 150 / 21032.6 14.0 14.8
2017-Sep-21 07:00S 32°30' W 086°24'1010.1 200 / 41033.6 14.0 15.2
2017-Sep-21 06:00S 32°30' W 086°36'1010.1 210 / 51034.0 14.0 15.4
2017-Sep-21 05:00S 32°30' W 086°48'1010.1 320 / 21033.8 14.0 15.1
2017-Sep-21 04:00S 32°30' W 087°00'1010.1 120 / 41033.9 14.2 15.2
2017-Sep-21 03:00S 32°30' W 087°12'5 5.1 220 / 41033.9 14.2 15.5
2017-Sep-21 02:00S 32°30' W 087°18'0 0.0
2017-Sep-21 01:00S 32°30' W 087°18'0 0.0
2017-Sep-21 00:00S 32°30' W 087°18'0 0.0 300 / 11033.3 14.4 15.1
2017-Sep-20 23:00S 32°30' W 087°18'1211.8 270 / 31033.5 14.6 15.7
2017-Sep-20 22:00S 32°24' W 087°30'1010.1 290 / 21033.4 14.7 15.8
2017-Sep-20 21:00S 32°24' W 087°42'1211.8 270 / 21033.6 14.9 15.7
2017-Sep-20 20:00S 32°30' W 087°54'1010.1 300 / 31033.8 15.0 15.5
2017-Sep-20 19:00S 32°30' W 088°06'5 5.1 340 / 21033.9 14.6 15.3
2017-Sep-20 18:00S 32°30' W 088°12'6 6.0 300 / 21034.3 14.6 15.3
2017-Sep-20 17:00S 32°24' W 088°12'6 6.0 230 / 31034.6 14.9 15.2
2017-Sep-20 16:00S 32°30' W 088°12'0 0.0 240 / 31034.5 14.6 15.1
2017-Sep-20 15:00S 32°30' W 088°12'5 5.1 350 / 11034.0 14.1 15.0
2017-Sep-20 14:00S 32°30' W 088°18'1010.1 080 / 21033.5 13.6 15.0
2017-Sep-20 13:00S 32°30' W 088°30'26 6.5 010 / 31032.9 13.4 14.9
2017-Sep-20 09:00S 32°24' W 089°00'6 6.0 280 / 31032.1 13.5 14.7
2017-Sep-20 08:00S 32°30' W 089°00'5 5.1 190 / 31032.3 13.6 14.7
2017-Sep-20 07:00S 32°30' W 089°06'5 5.1 190 / 51032.7 13.7 14.7
2017-Sep-20 06:00S 32°30' W 089°12'1010.1 220 / 31032.7 13.7 14.6
2017-Sep-20 05:00S 32°30' W 089°24'1211.8 220 / 31032.4 13.8 14.5
2017-Sep-20 04:00S 32°24' W 089°36'1010.1 240 / 41032.8 13.8 14.9
2017-Sep-20 03:00S 32°24' W 089°48'8 7.9 240 / 51032.5 13.8 15.0
2017-Sep-20 02:00S 32°30' W 089°54'6 6.0 250 / 41032.0 13.7 14.9
2017-Sep-20 01:00S 32°24' W 089°54'6 6.0 250 / 51031.5 13.6 14.8
2017-Sep-20 00:00S 32°30' W 089°54'8 7.9 250 / 51030.6 13.8 14.9
2017-Sep-19 23:00S 32°24' W 090°00'5 5.1 240 / 41029.8 14.1 15.1
2017-Sep-19 22:00S 32°24' W 090°06'1211.8 230 / 31029.4 14.0 15.3
2017-Sep-19 21:00S 32°30' W 090°18'1211.8 190 / 21029.0 13.7 15.2
2017-Sep-19 20:00S 32°24' W 090°30'1010.1 160 / 31029.2 13.6 15.2
2017-Sep-19 19:00S 32°24' W 090°42'8 7.9 150 / 21029.3 13.9 15.2
2017-Sep-19 18:00S 32°30' W 090°48'6 6.0 180 / 41029.5 14.8 15.3
2017-Sep-19 17:00S 32°24' W 090°48'0 0.0 180 / 61029.4 14.6 15.2
2017-Sep-19 16:00S 32°24' W 090°48'0 0.0 190 / 81029.2 14.3 15.2
2017-Sep-19 15:00S 32°24' W 090°48'8 7.9 200 / 81028.9 13.8 15.2
2017-Sep-19 14:00S 32°30' W 090°54'1010.1 200 / 91028.1 13.2 15.2
2017-Sep-19 13:00S 32°30' W 091°06'1010.1 200 / 91027.1 13.1 15.0
2017-Sep-19 12:00S 32°30' W 091°18'5 5.1 210 / 121026.9 13.1 15.8
2017-Sep-19 11:00S 32°30' W 091°24'1010.1 200 / 121026.4 13.2 16.0
2017-Sep-19 10:00S 32°30' W 091°36'8 7.9 210 / 111026.1 13.1 16.0
2017-Sep-19 09:00S 32°24' W 091°42'0 0.0 210 / 111026.0 13.1 16.1
2017-Sep-19 08:00S 32°24' W 091°42'0 0.0 190 / 121025.6 13.2 16.1
2017-Sep-19 07:00S 32°24' W 091°42'8 7.9 190 / 141025.6 13.2 16.1
2017-Sep-19 06:00S 32°30' W 091°48'1211.8 210 / 141025.0 13.3 16.2
2017-Sep-19 05:00S 32°24' W 092°00'1211.8 200 / 141024.8 13.3 16.2
2017-Sep-19 04:00S 32°30' W 092°12'1211.8 200 / 161024.5 13.4 16.1
2017-Sep-19 03:00S 32°24' W 092°24'8 7.9 200 / 171024.2 13.5 16.1
2017-Sep-19 02:00S 32°30' W 092°30'5 5.1 190 / 171023.6 13.4 15.9
2017-Sep-19 01:00S 32°30' W 092°36'0 0.0 180 / 181022.9 13.5 15.9
2017-Sep-19 00:00S 32°30' W 092°36'6 6.0 190 / 181022.3 13.7 15.9
2017-Sep-18 23:00S 32°24' W 092°36'0 0.0 190 / 191021.6 14.1 15.8
2017-Sep-18 22:00S 32°24' W 092°36'1010.1 190 / 181021.1 13.8 15.8
2017-Sep-18 21:00S 32°24' W 092°48'1010.1 200 / 181020.8 13.5 15.8
2017-Sep-18 20:00S 32°24' W 093°00'1010.1 200 / 171021.1 13.6 15.4
2017-Sep-18 19:00S 32°24' W 093°12'1211.8 200 / 181021.7 13.5 15.0
2017-Sep-18 18:00S 32°30' W 093°24'5 5.1 200 / 191021.9 13.5 14.9
2017-Sep-18 17:00S 32°30' W 093°30'6 6.0 190 / 191021.8 13.6 15.0
2017-Sep-18 16:00S 32°24' W 093°30'0 0.0 190 / 191021.2 13.4 15.0
2017-Sep-18 15:00S 32°24' W 093°30'0 0.0 200 / 201020.6 13.3 15.0
2017-Sep-18 14:00S 32°24' W 093°30'8 7.9 190 / 201019.7 13.1 15.0
2017-Sep-18 13:00S 32°30' W 093°36'5 5.1 200 / 191018.7 13.0 15.3
2017-Sep-18 12:00S 32°30' W 093°42'1010.1 200 / 201018.2 12.9 15.6
2017-Sep-18 11:00S 32°30' W 093°54'1010.1 200 / 201017.8 13.4 16.1
2017-Sep-18 10:00S 32°30' W 094°06'1010.1 210 / 191017.6 13.3 16.1
2017-Sep-18 09:00S 32°30' W 094°18'5 5.1 200 / 221017.8 13.1 16.0
2017-Sep-18 08:00S 32°30' W 094°24'0 0.0 200 / 211017.9 13.0 15.8
2017-Sep-18 07:00S 32°30' W 094°24'0 0.0 200 / 231017.7 13.5 15.8
2017-Sep-18 06:00S 32°30' W 094°24'6 6.0 200 / 231017.6 13.5 15.9
2017-Sep-18 05:00S 32°24' W 094°24'1010.1 210 / 221017.5 13.6 15.8
2017-Sep-18 04:00S 32°24' W 094°36'1211.8 220 / 221017.4 13.9 15.8
2017-Sep-18 03:00S 32°30' W 094°48'1010.1 220 / 231017.2 14.0 15.6
2017-Sep-18 02:00S 32°30' W 095°00'1010.1 220 / 221016.8 13.8 15.9
2017-Sep-18 01:00S 32°30' W 095°12'5 5.1 220 / 221016.3 13.9 15.7
2017-Sep-18 00:00S 32°30' W 095°18'0 0.0 220 / 221015.7 14.2 15.7
2017-Sep-17 23:00S 32°30' W 095°18'6 6.0 220 / 211015.3 14.5 15.7
2017-Sep-17 22:00S 32°24' W 095°18'0 0.0 220 / 201015.1 14.2 15.7
2017-Sep-17 21:00S 32°24' W 095°18'1010.1 230 / 211015.2 13.9 15.7
2017-Sep-17 20:00S 32°24' W 095°30'1010.1 230 / 221015.5 14.1 15.7
2017-Sep-17 19:00S 32°24' W 095°42'1010.1 240 / 201015.8 13.6 15.8
2017-Sep-17 18:00S 32°24' W 095°54'1211.8 240 / 181016.3 13.8 15.8
2017-Sep-17 17:00S 32°30' W 096°06'5 5.1 230 / 211016.4 13.7 15.4
2017-Sep-17 16:00S 32°30' W 096°12'0 0.0 240 / 201016.1 14.1 15.4
2017-Sep-17 15:00S 32°30' W 096°12'0 0.0 240 / 191015.6 14.4 15.3
2017-Sep-17 14:00S 32°30' W 096°12'0 0.0 240 / 181015.1 14.3 15.3
2017-Sep-17 13:00S 32°30' W 096°12'0 0.0 240 / 201014.4 13.9 15.4
2017-Sep-17 12:00S 32°30' W 096°12'1010.1 250 / 191013.9 13.8 15.3
2017-Sep-17 11:00S 32°30' W 096°24'1010.1 240 / 181013.6 13.8 15.2
2017-Sep-17 10:00S 32°30' W 096°36'1010.1 240 / 191013.6 13.9 15.9
2017-Sep-17 09:00S 32°30' W 096°48'1211.8 240 / 161014.0 14.1 16.1
2017-Sep-17 08:00S 32°24' W 097°00'8 7.9 250 / 181014.4 14.0 16.4
2017-Sep-17 07:00S 32°30' W 097°06'0 0.0 250 / 151014.9 13.4 16.5
2017-Sep-17 06:00S 32°30' W 097°06'0 0.0 230 / 161015.1 13.7 16.5
2017-Sep-17 05:00S 32°30' W 097°06'0 0.0 240 / 161015.2 14.2 16.5
2017-Sep-17 04:00S 32°30' W 097°06'1010.1 240 / 141015.2 14.3 16.5
2017-Sep-17 03:00S 32°30' W 097°18'1211.8 240 / 141015.3 14.2 16.6
2017-Sep-17 02:00S 32°24' W 097°30'1211.8 230 / 161015.0 14.2 16.6
2017-Sep-17 01:00S 32°30' W 097°42'1010.1 230 / 181014.5 14.0 16.3
2017-Sep-17 00:00S 32°30' W 097°54'0 0.0 230 / 201014.1 13.8 16.2
2017-Sep-16 23:00S 32°30' W 097°54'0 0.0 220 / 221013.5 13.6 16.3
2017-Sep-16 22:00S 32°30' W 097°54'5 5.1 210 / 231013.0 13.1 16.3
2017-Sep-16 21:00S 32°30' W 098°00'8 7.9 230 / 261013.2 12.6 16.2
2017-Sep-16 20:00S 32°24' W 098°06'1211.8 220 / 271013.3 13.1 16.5
2017-Sep-16 19:00S 32°30' W 098°18'1010.1 240 / 261013.3 14.1 16.0
2017-Sep-16 18:00S 32°30' W 098°30'1211.8 340 / 171013.8 16.1 16.0
2017-Sep-16 17:00S 32°24' W 098°42'8 7.9 350 / 241013.7 15.8 16.6
2017-Sep-16 16:00S 32°30' W 098°48'0 0.0 340 / 311015.2 16.0 16.7
2017-Sep-16 15:00S 32°30' W 098°48'0 0.0 340 / 251015.4 16.4 16.7
2017-Sep-16 14:00S 32°30' W 098°48'0 0.0 340 / 221015.6 16.6 16.7
2017-Sep-16 13:00S 32°30' W 098°48'1010.1 340 / 221015.8 16.8 16.7
2017-Sep-16 12:00S 32°30' W 099°00'1010.1 340 / 191015.8 16.8 16.6
2017-Sep-16 11:00S 32°30' W 099°12'1010.1 340 / 201016.2 16.7 16.7
2017-Sep-16 10:00S 32°30' W 099°24'1010.1 350 / 211016.9 16.6 17.0
2017-Sep-16 09:00S 32°30' W 099°36'5 5.1 340 / 201017.8 16.7 17.0
2017-Sep-16 08:00S 32°30' W 099°42'0 0.0 340 / 221018.9 16.8 16.9
2017-Sep-16 07:00S 32°30' W 099°42'0 0.0 340 / 221020.1 16.7 16.9
2017-Sep-16 06:00S 32°30' W 099°42'0 0.0 340 / 221020.9 16.9 17.0
2017-Sep-16 05:00S 32°30' W 099°42'   350 / 221021.4 16.7 17.0
Track history (hours):
 
Tides and Currents Weather Stations Pressure Air Temp Water Temp Dewpoint Dewpoint Depression Visibility Wind Speed Wind Dir Waves Ship Positions

Oceanographic research ship Nathaniel B. Palmer (USA)

Contact: Ethan Norris, ethan.norris.contractor@usap.gov

Detailed information on ship capabilities available from University of Delaware's Ocean Information Center and ARCUS's ALIAS (Arctic Logistics Information and Support) project.

Owner: OFFSHORE SERVICE VESSELS, GALLIANO, LA. More information available from US FCC via Universal Licensing System and Coast Guard Vessel Documentation Center.

Last reported at 2017-Sep-26 05:00 UTC. Time now 2017-Sep-26 05:56 UTC.
Position S 32°24' W 073°54'.

Type: Other ship. MMSI: 366610000.

Wind from 180 at 31 knots

Barometer 1020.7 mb
Air temperature 12.2 ° C
Water temperature 13.5 ° C

Date/timePositionNaut miles runAvg speedWind from/ knotsBaromVisibWave heightAir tempDewpointWater temp
2017-Sep-26 05:00S 32°24' W 073°54'0 0.0 180 / 311020.7 12.2 13.5
2017-Sep-26 04:00S 32°24' W 073°54'5 5.1 180 / 311021.1 12.2 13.5
2017-Sep-26 03:00S 32°24' W 074°00'1211.8 180 / 301021.0 12.3 13.3
2017-Sep-26 02:00S 32°30' W 074°12'5 5.1 180 / 291021.5 12.3 13.2
2017-Sep-26 01:00S 32°30' W 074°18'1211.8 180 / 281021.7 12.3 13.2
2017-Sep-26 00:00S 32°24' W 074°30'1010.1 180 / 281022.0 12.4 13.5
2017-Sep-25 23:00S 32°24' W 074°42'5 5.1 180 / 281022.1 12.4 13.6
2017-Sep-25 22:00S 32°24' W 074°48'0 0.0 170 / 281022.5 12.9 13.5
2017-Sep-25 21:00S 32°24' W 074°48'0 0.0 170 / 261022.6 13.0 13.5
2017-Sep-25 20:00S 32°24' W 074°48'0 0.0 180 / 271022.5 12.9 13.5
2017-Sep-25 19:00S 32°24' W 074°48'1211.8 180 / 281022.7 12.7 13.4
2017-Sep-25 18:00S 32°30' W 075°00'1211.8 180 / 271023.1 12.6 13.5
2017-Sep-25 17:00S 32°24' W 075°12'1010.1 180 / 271023.6 12.7 14.0
2017-Sep-25 16:00S 32°24' W 075°24'1010.1 180 / 261024.5 12.8 14.2
2017-Sep-25 15:00S 32°24' W 075°36'5 5.1 170 / 261025.0 13.0 14.3
2017-Sep-25 14:00S 32°24' W 075°42'0 0.0 170 / 261025.3 13.3 14.5
2017-Sep-25 13:00S 32°24' W 075°42'0 0.0 160 / 271025.1 13.3 14.4
2017-Sep-25 12:00S 32°24' W 075°42'0 0.0 160 / 261024.7 13.0 14.4
2017-Sep-25 11:00S 32°24' W 075°42'5 5.1 160 / 271024.1 12.8 14.3
2017-Sep-25 10:00S 32°24' W 075°48'1010.1 170 / 261024.0 12.8 14.5
2017-Sep-25 09:00S 32°24' W 076°00'8 7.9 170 / 261024.0 12.8 15.0
2017-Sep-25 08:00S 32°30' W 076°06'1010.1 170 / 251024.5 12.7 14.3
2017-Sep-25 07:00S 32°30' W 076°18'1211.8 170 / 221025.2 12.7 14.3
2017-Sep-25 06:00S 32°24' W 076°30'5 5.1 170 / 201025.9 12.8 14.4
2017-Sep-25 05:00S 32°24' W 076°36'0 0.0 170 / 181026.7 12.9 14.4
2017-Sep-25 04:00S 32°24' W 076°36'0 0.0 170 / 191026.9 13.0 14.4
2017-Sep-25 03:00S 32°24' W 076°36'0 0.0 170 / 181026.9 13.1 14.5
2017-Sep-25 02:00S 32°24' W 076°36'1010.1 160 / 181026.7 13.4 14.5
2017-Sep-25 01:00S 32°24' W 076°48'1211.8 170 / 181026.5 13.4 14.5
2017-Sep-25 00:00S 32°30' W 077°00'8 7.9 160 / 181026.1 13.6 14.7
2017-Sep-24 23:00S 32°24' W 077°06'1010.1 170 / 171025.8 13.8 14.8
2017-Sep-24 22:00S 32°24' W 077°18'1211.8 170 / 181025.3 14.1 14.8
2017-Sep-24 21:00S 32°30' W 077°30'0 0.0 160 / 161025.7 14.6 14.7
2017-Sep-24 20:00S 32°30' W 077°30'0 0.0 170 / 181025.7 14.6 14.7
2017-Sep-24 19:00S 32°30' W 077°30'0 0.0 180 / 151026.1 14.7 14.7
2017-Sep-24 18:00S 32°30' W 077°30'0 0.0 170 / 121026.6 14.6 14.7
2017-Sep-24 17:00S 32°30' W 077°30'1010.1 170 / 131026.6 14.3 14.7
2017-Sep-24 16:00S 32°30' W 077°42'1010.1 180 / 141026.6 14.0 14.7
2017-Sep-24 15:00S 32°30' W 077°54'1010.1 180 / 121026.3 13.9 14.5
2017-Sep-24 14:00S 32°30' W 078°06'1010.1 180 / 121026.1 13.9 14.6
2017-Sep-24 13:00S 32°30' W 078°18'5 5.1 180 / 111025.4 13.7 14.6
2017-Sep-24 12:00S 32°30' W 078°24'6 6.0 160 / 121024.5 13.7 14.8
2017-Sep-24 11:00S 32°24' W 078°24'6 6.0 170 / 131023.8 13.4 14.8
2017-Sep-24 10:00S 32°30' W 078°24'6 6.0 170 / 141023.2 13.4 14.8
2017-Sep-24 09:00S 32°24' W 078°24'1211.8 180 / 151022.6 13.4 14.8
2017-Sep-24 08:00S 32°30' W 078°36'1010.1 180 / 141022.6 13.6 14.8
2017-Sep-24 07:00S 32°30' W 078°48'1211.8 180 / 141022.7 13.8 14.6
2017-Sep-24 06:00S 32°24' W 079°00'1211.8 190 / 131022.8 14.0 14.9
2017-Sep-24 05:00S 32°30' W 079°12'8 7.9 190 / 141023.2 14.1 14.9
2017-Sep-24 04:00S 32°24' W 079°18'0 0.0 190 / 161023.1 14.0 14.9
2017-Sep-24 03:00S 32°24' W 079°18'0 0.0 240 / 161022.8 14.5 14.9
2017-Sep-24 02:00S 32°24' W 079°18'5 5.1 240 / 131022.2 14.8 14.9
2017-Sep-24 01:00S 32°24' W 079°24'1211.8 240 / 141021.8 14.8 15.0
2017-Sep-24 00:00S 32°30' W 079°36'1010.1 250 / 151021.5 14.7 14.9
2017-Sep-23 23:00S 32°30' W 079°48'1211.8 270 / 141021.3 15.3 15.1
2017-Sep-23 22:00S 32°24' W 080°00'8 7.9 280 / 111020.8 16.1 15.1
2017-Sep-23 21:00S 32°30' W 080°06'0 0.0 280 / 121020.6 15.3 15.1
2017-Sep-23 20:00S 32°30' W 080°06'0 0.0 280 / 111020.6 14.9 15.1
2017-Sep-23 19:00S 32°30' W 080°06'0 0.0 280 / 101020.9 14.7 15.0
2017-Sep-23 18:00S 32°30' W 080°06'0 0.0 260 / 121021.5 14.8 15.0
2017-Sep-23 17:00S 32°30' W 080°06'1010.1 260 / 141022.1 14.4 15.0
2017-Sep-23 16:00S 32°30' W 080°18'1211.8 250 / 141022.4 14.1 15.0
2017-Sep-23 15:00S 32°24' W 080°30'1211.8 250 / 131022.3 13.8 15.1
2017-Sep-23 14:00S 32°30' W 080°42'1010.1 250 / 111021.9 13.7 15.0
2017-Sep-23 13:00S 32°30' W 080°54'5 5.1 260 / 111021.5 13.5 15.0
2017-Sep-23 12:00S 32°30' W 081°00'6 6.0 270 / 111021.1 13.4 15.1
2017-Sep-23 11:00S 32°24' W 081°00'0 0.0 250 / 121020.9 13.3 15.1
2017-Sep-23 10:00S 32°24' W 081°00'5 5.1 250 / 121020.9 13.4 15.1
2017-Sep-23 09:00S 32°24' W 081°06'8 7.9 270 / 111021.2 13.6 15.1
2017-Sep-23 08:00S 32°30' W 081°12'1515.2 290 / 81021.9 13.5 15.1
2017-Sep-23 07:00S 32°30' W 081°30'1010.1 290 / 81022.7 13.4 14.5
2017-Sep-23 06:00S 32°30' W 081°42'1010.1 310 / 71023.2 13.5 14.6
2017-Sep-23 05:00S 32°30' W 081°54'0 0.0 310 / 51023.6 13.5 14.4
2017-Sep-23 04:00S 32°30' W 081°54'0 0.0 340 / 51023.9 13.6 14.5
2017-Sep-23 03:00S 32°30' W 081°54'6 6.0 020 / 51024.1 13.5 14.5
2017-Sep-23 02:00S 32°24' W 081°54'5 5.1 030 / 41024.2 13.6 14.5
2017-Sep-23 01:00S 32°24' W 082°00'1010.1 040 / 41024.3 13.4 14.6
2017-Sep-23 00:00S 32°24' W 082°12'1010.1 180 / 21024.9 13.4 14.6
2017-Sep-22 23:00S 32°24' W 082°24'1211.8 240 / 21025.3 13.5 14.8
2017-Sep-22 22:00S 32°30' W 082°36'1010.1 260 / 31025.5 13.7 15.2
2017-Sep-22 21:00S 32°30' W 082°48'6 6.0 250 / 31026.1 13.8 14.8
2017-Sep-22 20:00S 32°24' W 082°48'6 6.0 020 / 11026.3 14.5 14.5
2017-Sep-22 19:00S 32°30' W 082°48'0 0.0 130 / 31026.8 14.2 14.4
2017-Sep-22 18:00S 32°30' W 082°48'0 0.0 220 / 31027.9 13.7 14.4
2017-Sep-22 17:00S 32°30' W 082°48'0 0.0 090 / 21028.2 14.5 14.4
2017-Sep-22 16:00S 32°30' W 082°48'1010.1 070 / 91027.2 13.5 14.4
2017-Sep-22 15:00S 32°30' W 083°00'1211.8 080 / 91027.5 13.4 14.4
2017-Sep-22 14:00S 32°24' W 083°12'1010.1 110 / 61028.3 13.3 14.7
2017-Sep-22 13:00S 32°24' W 083°24'1010.1 120 / 61028.1 13.3 14.7
2017-Sep-22 12:00S 32°24' W 083°36'8 7.9 110 / 61027.7 13.2 14.7
2017-Sep-22 11:00S 32°30' W 083°42'0 0.0 120 / 51028.1 13.3 14.7
2017-Sep-22 10:00S 32°30' W 083°42'0 0.0 180 / 81029.0 13.4 14.7
2017-Sep-22 09:00S 32°30' W 083°42'5 5.1 180 / 71029.6 13.4 14.7
2017-Sep-22 08:00S 32°30' W 083°48'1010.1 180 / 71030.2 13.3 14.7
2017-Sep-22 07:00S 32°30' W 084°00'1010.1 180 / 61030.5 13.5 14.8
2017-Sep-22 06:00S 32°30' W 084°12'1010.1 180 / 61030.9 13.6 14.7
2017-Sep-22 05:00S 32°30' W 084°24'1010.1 190 / 71031.3 13.7 15.2
2017-Sep-22 04:00S 32°30' W 084°36'6 6.0 190 / 61031.3 13.7 15.3
2017-Sep-22 03:00S 32°24' W 084°36'0 0.0 200 / 41031.2 13.7 15.3
2017-Sep-22 02:00S 32°24' W 084°36'6 6.0 210 / 31031.1 13.8 15.3
2017-Sep-22 01:00S 32°30' W 084°36'8 7.9 210 / 61031.3 13.8 15.3
2017-Sep-22 00:00S 32°24' W 084°42'1211.8 190 / 51031.1 13.7 15.5
2017-Sep-21 23:00S 32°30' W 084°54'1010.1 200 / 41030.8 14.0 15.7
2017-Sep-21 22:00S 32°30' W 085°06'1010.1 190 / 21030.7 14.2 15.5
2017-Sep-21 21:00S 32°30' W 085°18'1010.1 180 / 41031.1 14.2 15.5
2017-Sep-21 20:00S 32°30' W 085°30'6 6.0 200 / 51031.6 14.6 14.9
2017-Sep-21 19:00S 32°24' W 085°30'0 0.0 230 / 11032.2 15.2 14.7
2017-Sep-21 18:00S 32°24' W 085°30'0 0.0 190 / 11032.9 15.1 14.8
2017-Sep-21 17:00S 32°24' W 085°30'6 6.0 180 / 11033.2 15.0 14.8
2017-Sep-21 16:00S 32°30' W 085°30'8 7.9 140 / 21033.1 14.5 14.8
2017-Sep-21 15:00S 32°24' W 085°36'1010.1 180 / 21033.1 13.9 14.9
2017-Sep-21 14:00S 32°24' W 085°48'1010.1 190 / 41032.8 13.8 15.2
2017-Sep-21 13:00S 32°24' W 086°00'8 7.9 230 / 51032.6 13.9 15.2
2017-Sep-21 12:00S 32°30' W 086°06'1211.8 240 / 61032.3 13.6 15.0
2017-Sep-21 11:00S 32°24' W 086°18'8 7.9 290 / 31032.0 13.7 14.9
2017-Sep-21 10:00S 32°30' W 086°24'0 0.0 290 / 21031.7 13.6 14.8
2017-Sep-21 09:00S 32°30' W 086°24'0 0.0 260 / 31032.3 13.8 14.8
2017-Sep-21 08:00S 32°30' W 086°24'0 0.0 150 / 21032.6 14.0 14.8
2017-Sep-21 07:00S 32°30' W 086°24'1010.1 200 / 41033.6 14.0 15.2
2017-Sep-21 06:00S 32°30' W 086°36'1010.1 210 / 51034.0 14.0 15.4
2017-Sep-21 05:00S 32°30' W 086°48'1010.1 320 / 21033.8 14.0 15.1
2017-Sep-21 04:00S 32°30' W 087°00'1010.1 120 / 41033.9 14.2 15.2
2017-Sep-21 03:00S 32°30' W 087°12'5 5.1 220 / 41033.9 14.2 15.5
2017-Sep-21 02:00S 32°30' W 087°18'0 0.0
2017-Sep-21 01:00S 32°30' W 087°18'0 0.0
2017-Sep-21 00:00S 32°30' W 087°18'0 0.0 300 / 11033.3 14.4 15.1
2017-Sep-20 23:00S 32°30' W 087°18'1211.8 270 / 31033.5 14.6 15.7
2017-Sep-20 22:00S 32°24' W 087°30'1010.1 290 / 21033.4 14.7 15.8
2017-Sep-20 21:00S 32°24' W 087°42'1211.8 270 / 21033.6 14.9 15.7
2017-Sep-20 20:00S 32°30' W 087°54'1010.1 300 / 31033.8 15.0 15.5
2017-Sep-20 19:00S 32°30' W 088°06'5 5.1 340 / 21033.9 14.6 15.3
2017-Sep-20 18:00S 32°30' W 088°12'6 6.0 300 / 21034.3 14.6 15.3
2017-Sep-20 17:00S 32°24' W 088°12'6 6.0 230 / 31034.6 14.9 15.2
2017-Sep-20 16:00S 32°30' W 088°12'0 0.0 240 / 31034.5 14.6 15.1
2017-Sep-20 15:00S 32°30' W 088°12'5 5.1 350 / 11034.0 14.1 15.0
2017-Sep-20 14:00S 32°30' W 088°18'1010.1 080 / 21033.5 13.6 15.0
2017-Sep-20 13:00S 32°30' W 088°30'26 6.5 010 / 31032.9 13.4 14.9
2017-Sep-20 09:00S 32°24' W 089°00'6 6.0 280 / 31032.1 13.5 14.7
2017-Sep-20 08:00S 32°30' W 089°00'5 5.1 190 / 31032.3 13.6 14.7
2017-Sep-20 07:00S 32°30' W 089°06'5 5.1 190 / 51032.7 13.7 14.7
2017-Sep-20 06:00S 32°30' W 089°12'1010.1 220 / 31032.7 13.7 14.6
2017-Sep-20 05:00S 32°30' W 089°24'1211.8 220 / 31032.4 13.8 14.5
2017-Sep-20 04:00S 32°24' W 089°36'1010.1 240 / 41032.8 13.8 14.9
2017-Sep-20 03:00S 32°24' W 089°48'8 7.9 240 / 51032.5 13.8 15.0
2017-Sep-20 02:00S 32°30' W 089°54'6 6.0 250 / 41032.0 13.7 14.9
2017-Sep-20 01:00S 32°24' W 089°54'6 6.0 250 / 51031.5 13.6 14.8
2017-Sep-20 00:00S 32°30' W 089°54'8 7.9 250 / 51030.6 13.8 14.9
2017-Sep-19 23:00S 32°24' W 090°00'5 5.1 240 / 41029.8 14.1 15.1
2017-Sep-19 22:00S 32°24' W 090°06'1211.8 230 / 31029.4 14.0 15.3
2017-Sep-19 21:00S 32°30' W 090°18'1211.8 190 / 21029.0 13.7 15.2
2017-Sep-19 20:00S 32°24' W 090°30'1010.1 160 / 31029.2 13.6 15.2
2017-Sep-19 19:00S 32°24' W 090°42'8 7.9 150 / 21029.3 13.9 15.2
2017-Sep-19 18:00S 32°30' W 090°48'6 6.0 180 / 41029.5 14.8 15.3
2017-Sep-19 17:00S 32°24' W 090°48'0 0.0 180 / 61029.4 14.6 15.2
2017-Sep-19 16:00S 32°24' W 090°48'0 0.0 190 / 81029.2 14.3 15.2
2017-Sep-19 15:00S 32°24' W 090°48'8 7.9 200 / 81028.9 13.8 15.2
2017-Sep-19 14:00S 32°30' W 090°54'1010.1 200 / 91028.1 13.2 15.2
2017-Sep-19 13:00S 32°30' W 091°06'1010.1 200 / 91027.1 13.1 15.0
2017-Sep-19 12:00S 32°30' W 091°18'5 5.1 210 / 121026.9 13.1 15.8
2017-Sep-19 11:00S 32°30' W 091°24'1010.1 200 / 121026.4 13.2 16.0
2017-Sep-19 10:00S 32°30' W 091°36'8 7.9 210 / 111026.1 13.1 16.0
2017-Sep-19 09:00S 32°24' W 091°42'0 0.0 210 / 111026.0 13.1 16.1
2017-Sep-19 08:00S 32°24' W 091°42'0 0.0 190 / 121025.6 13.2 16.1
2017-Sep-19 07:00S 32°24' W 091°42'8 7.9 190 / 141025.6 13.2 16.1
2017-Sep-19 06:00S 32°30' W 091°48'1211.8 210 / 141025.0 13.3 16.2
2017-Sep-19 05:00S 32°24' W 092°00'1211.8 200 / 141024.8 13.3 16.2
2017-Sep-19 04:00S 32°30' W 092°12'1211.8 200 / 161024.5 13.4 16.1
2017-Sep-19 03:00S 32°24' W 092°24'8 7.9 200 / 171024.2 13.5 16.1
2017-Sep-19 02:00S 32°30' W 092°30'5 5.1 190 / 171023.6 13.4 15.9
2017-Sep-19 01:00S 32°30' W 092°36'0 0.0 180 / 181022.9 13.5 15.9
2017-Sep-19 00:00S 32°30' W 092°36'6 6.0 190 / 181022.3 13.7 15.9
2017-Sep-18 23:00S 32°24' W 092°36'0 0.0 190 / 191021.6 14.1 15.8
2017-Sep-18 22:00S 32°24' W 092°36'1010.1 190 / 181021.1 13.8 15.8
2017-Sep-18 21:00S 32°24' W 092°48'1010.1 200 / 181020.8 13.5 15.8
2017-Sep-18 20:00S 32°24' W 093°00'1010.1 200 / 171021.1 13.6 15.4
2017-Sep-18 19:00S 32°24' W 093°12'1211.8 200 / 181021.7 13.5 15.0
2017-Sep-18 18:00S 32°30' W 093°24'5 5.1 200 / 191021.9 13.5 14.9
2017-Sep-18 17:00S 32°30' W 093°30'6 6.0 190 / 191021.8 13.6 15.0
2017-Sep-18 16:00S 32°24' W 093°30'0 0.0 190 / 191021.2 13.4 15.0
2017-Sep-18 15:00S 32°24' W 093°30'0 0.0 200 / 201020.6 13.3 15.0
2017-Sep-18 14:00S 32°24' W 093°30'8 7.9 190 / 201019.7 13.1 15.0
2017-Sep-18 13:00S 32°30' W 093°36'5 5.1 200 / 191018.7 13.0 15.3
2017-Sep-18 12:00S 32°30' W 093°42'1010.1 200 / 201018.2 12.9 15.6
2017-Sep-18 11:00S 32°30' W 093°54'1010.1 200 / 201017.8 13.4 16.1
2017-Sep-18 10:00S 32°30' W 094°06'1010.1 210 / 191017.6 13.3 16.1
2017-Sep-18 09:00S 32°30' W 094°18'5 5.1 200 / 221017.8 13.1 16.0
2017-Sep-18 08:00S 32°30' W 094°24'0 0.0 200 / 211017.9 13.0 15.8
2017-Sep-18 07:00S 32°30' W 094°24'0 0.0 200 / 231017.7 13.5 15.8
2017-Sep-18 06:00S 32°30' W 094°24'6 6.0 200 / 231017.6 13.5 15.9
2017-Sep-18 05:00S 32°24' W 094°24'1010.1 210 / 221017.5 13.6 15.8
2017-Sep-18 04:00S 32°24' W 094°36'1211.8 220 / 221017.4 13.9 15.8
2017-Sep-18 03:00S 32°30' W 094°48'1010.1 220 / 231017.2 14.0 15.6
2017-Sep-18 02:00S 32°30' W 095°00'1010.1 220 / 221016.8 13.8 15.9
2017-Sep-18 01:00S 32°30' W 095°12'5 5.1 220 / 221016.3 13.9 15.7
2017-Sep-18 00:00S 32°30' W 095°18'0 0.0 220 / 221015.7 14.2 15.7
2017-Sep-17 23:00S 32°30' W 095°18'6 6.0 220 / 211015.3 14.5 15.7
2017-Sep-17 22:00S 32°24' W 095°18'0 0.0 220 / 201015.1 14.2 15.7
2017-Sep-17 21:00S 32°24' W 095°18'1010.1 230 / 211015.2 13.9 15.7
2017-Sep-17 20:00S 32°24' W 095°30'1010.1 230 / 221015.5 14.1 15.7
2017-Sep-17 19:00S 32°24' W 095°42'1010.1 240 / 201015.8 13.6 15.8
2017-Sep-17 18:00S 32°24' W 095°54'1211.8 240 / 181016.3 13.8 15.8
2017-Sep-17 17:00S 32°30' W 096°06'5 5.1 230 / 211016.4 13.7 15.4
2017-Sep-17 16:00S 32°30' W 096°12'0 0.0 240 / 201016.1 14.1 15.4
2017-Sep-17 15:00S 32°30' W 096°12'0 0.0 240 / 191015.6 14.4 15.3
2017-Sep-17 14:00S 32°30' W 096°12'0 0.0 240 / 181015.1 14.3 15.3
2017-Sep-17 13:00S 32°30' W 096°12'0 0.0 240 / 201014.4 13.9 15.4
2017-Sep-17 12:00S 32°30' W 096°12'1010.1 250 / 191013.9 13.8 15.3
2017-Sep-17 11:00S 32°30' W 096°24'1010.1 240 / 181013.6 13.8 15.2
2017-Sep-17 10:00S 32°30' W 096°36'1010.1 240 / 191013.6 13.9 15.9
2017-Sep-17 09:00S 32°30' W 096°48'1211.8 240 / 161014.0 14.1 16.1
2017-Sep-17 08:00S 32°24' W 097°00'8 7.9 250 / 181014.4 14.0 16.4
2017-Sep-17 07:00S 32°30' W 097°06'0 0.0 250 / 151014.9 13.4 16.5
2017-Sep-17 06:00S 32°30' W 097°06'0 0.0 230 / 161015.1 13.7 16.5
2017-Sep-17 05:00S 32°30' W 097°06'0 0.0 240 / 161015.2 14.2 16.5
2017-Sep-17 04:00S 32°30' W 097°06'1010.1 240 / 141015.2 14.3 16.5
2017-Sep-17 03:00S 32°30' W 097°18'1211.8 240 / 141015.3 14.2 16.6
2017-Sep-17 02:00S 32°24' W 097°30'1211.8 230 / 161015.0 14.2 16.6
2017-Sep-17 01:00S 32°30' W 097°42'1010.1 230 / 181014.5 14.0 16.3
2017-Sep-17 00:00S 32°30' W 097°54'0 0.0 230 / 201014.1 13.8 16.2
2017-Sep-16 23:00S 32°30' W 097°54'0 0.0 220 / 221013.5 13.6 16.3
2017-Sep-16 22:00S 32°30' W 097°54'5 5.1 210 / 231013.0 13.1 16.3
2017-Sep-16 21:00S 32°30' W 098°00'8 7.9 230 / 261013.2 12.6 16.2
2017-Sep-16 20:00S 32°24' W 098°06'1211.8 220 / 271013.3 13.1 16.5
2017-Sep-16 19:00S 32°30' W 098°18'1010.1 240 / 261013.3 14.1 16.0
2017-Sep-16 18:00S 32°30' W 098°30'1211.8 340 / 171013.8 16.1 16.0
2017-Sep-16 17:00S 32°24' W 098°42'8 7.9 350 / 241013.7 15.8 16.6
2017-Sep-16 16:00S 32°30' W 098°48'0 0.0 340 / 311015.2 16.0 16.7
2017-Sep-16 15:00S 32°30' W 098°48'0 0.0 340 / 251015.4 16.4 16.7
2017-Sep-16 14:00S 32°30' W 098°48'0 0.0 340 / 221015.6 16.6 16.7
2017-Sep-16 13:00S 32°30' W 098°48'1010.1 340 / 221015.8 16.8 16.7
2017-Sep-16 12:00S 32°30' W 099°00'1010.1 340 / 191015.8 16.8 16.6
2017-Sep-16 11:00S 32°30' W 099°12'1010.1 340 / 201016.2 16.7 16.7
2017-Sep-16 10:00S 32°30' W 099°24'1010.1 350 / 211016.9 16.6 17.0
2017-Sep-16 09:00S 32°30' W 099°36'5 5.1 340 / 201017.8 16.7 17.0
2017-Sep-16 08:00S 32°30' W 099°42'0 0.0 340 / 221018.9 16.8 16.9
2017-Sep-16 07:00S 32°30' W 099°42'0 0.0 340 / 221020.1 16.7 16.9
2017-Sep-16 06:00S 32°30' W 099°42'0 0.0 340 / 221020.9 16.9 17.0
2017-Sep-16 05:00S 32°30' W 099°42'   350 / 221021.4 16.7 17.0

Dump ship's entire track history